Location: Waco, TX
(31.5480°N, 97.1670°W)
Time: 16:08:04
(UTC-05:00)

ISS - Pass Details

Date: 21 August 2019
Orbit: 410 x 421 km, 51.6° (Epoch: 22 August)

Event Time Altitude Azimuth Distance (km) Brightness Sun altitude
Rises 07:08:31 0° 201° (SSW) 2,329 -0.3 1.4°
Reaches altitude 10° 07:10:47 10° 188° (S) 1,473 -1.2 1.9°
Maximum altitude 07:13:37 27° 129° (SE) 838 -1.6 2.5°
Drops below altitude 10° 07:16:29 10° 70° (ENE) 1,486 1.4 3.1°
Sets 07:18:47 0° 57° (ENE) 2,354 1.6 3.6°
